Flag for Belgium Weather past 2 weeks in Kortrijk, Belgium

Now
70 °F

Broken clouds.


Feels Like: 70 °F
Forecast: 56 / 66 °F
Wind: 14 mph from Southwest

Location: Lille Airport

Current Time: Jul 7, 2015 at 5:30:42 PM

Latest Report: Jul 7, 2015 at 5:00 PM


Visibility: N/A

Pressure: 29.83 "Hg

Humidity: 69%

Dew point: 59 °F

Location of KortrijkLocation

Historic Weather in Kortrijk — Graph

°F

Kortrijk temperature yesterday

Maximum temperature yesterday: 79 °F (at 5:30 PM)
Minimum temperature yesterday: 54 °F (at 5:30 AM)
Average temperature yesterday: 67 °F

Past Weeks' High & Low Weather Summary

 TemperatureHumidityPressure
High95 °F (Jul 1, 3:30 PM)100% (Jun 24, 5:30 AM)30.27 "Hg (Jun 24, 5:30 AM)
Low46 °F (Jun 24, 5:30 AM)25% (Jul 1, 6:00 PM)29.74 "Hg (Jun 22, 5:30 PM)
Average69 °F64%30.08 "Hg
* Reported Jun 22 4:00 PM — Jul 7 4:30 PM, Kortrijk, Weather by CustomWeather, © 2015

Note: Actual official high and low records may vary slightly from our data, if they occured in-between our weather recording intervals... More about our weather records

Advertising

Kortrijk weather history for previous 24 hours

 ConditionsComfort  
Time TempWeatherWind HumidityBarometerVisibility
4:30 PM
Tue, Jul 7
70 °FBroken clouds.17 mph73%29.83 "HgN/A
4:00 PM70 °FOvercast.18 mph69%29.86 "HgN/A
3:30 PM70 °FBroken clouds.15 mph64%29.86 "HgN/A
3:00 PM72 °FPartly sunny.14 mph61%29.83 "HgN/A
2:30 PM72 °FPartly sunny.16 mph61%29.86 "HgN/A
2:00 PM73 °FPassing clouds.14 mph57%29.83 "HgN/A
1:30 PM73 °FPassing clouds.15 mph57%29.86 "HgN/A
1:00 PM72 °FPassing clouds.8 mph61%29.83 "HgN/A
12:30 PM72 °FBroken clouds.5 mph61%29.83 "HgN/A
12:00 PM72 °FSunny.7 mph61%29.86 "Hg10 mi
11:30 AM73 °FSunny.12 mph57%29.86 "Hg10 mi
11:00 AM73 °FPassing clouds.10 mph57%29.83 "HgN/A
10:30 AM72 °FPassing clouds.5 mph65%29.86 "HgN/A
10:00 AM72 °FPassing clouds.5 mph61%29.86 "HgN/A
9:30 AM72 °FPassing clouds.7 mph61%29.86 "HgN/A
9:00 AM70 °FPassing clouds.6 mph64%29.86 "HgN/A
8:30 AM66 °FSunny.6 mph68%29.86 "Hg10 mi
8:00 AM63 °FSunny.2 mph83%29.86 "Hg10 mi
7:30 AM61 °FSunny.2 mph83%29.86 "Hg10 mi
7:00 AM59 °FSunny.1 mph88%29.89 "Hg10 mi
6:30 AM59 °FClear.2 mph88%29.89 "Hg10 mi
6:00 AM59 °FClear.No wind82%29.89 "Hg10 mi
5:30 AM59 °FClear.2 mph82%29.89 "Hg10 mi
5:00 AM61 °FClear.2 mph83%29.92 "Hg10 mi
4:30 AM61 °FClear.No wind83%29.92 "Hg10 mi
4:00 AM61 °FClear.No wind83%29.92 "Hg10 mi
3:30 AM61 °FClear.No wind83%29.95 "Hg10 mi
3:00 AM61 °FClear.No wind88%29.95 "Hg10 mi
2:30 AM63 °FClear.No wind83%29.95 "Hg10 mi
2:00 AM63 °FClear.No wind83%29.98 "Hg10 mi
1:30 AM64 °FClear.2 mph78%29.98 "Hg10 mi
1:00 AM64 °FPassing clouds.5 mph78%29.98 "HgN/A
12:30 AM68 °FClear.3 mph64%30.01 "Hg10 mi
12:00 AM68 °FClear.2 mph60%30.01 "Hg10 mi
11:30 PM
Mon, Jul 6
70 °FClear.7 mph53%30.01 "Hg10 mi
11:00 PM72 °FSunny.6 mph53%30.01 "Hg10 mi
10:30 PM72 °FClear.6 mph53%30.01 "HgN/A
10:00 PM73 °FSunny.5 mph47%30.01 "Hg10 mi
9:30 PM73 °FSunny.5 mph50%30.01 "Hg10 mi
9:00 PM77 °FSunny.5 mph44%30.01 "Hg10 mi
8:30 PM79 °FSunny.3 mph37%30.04 "Hg10 mi
8:00 PM79 °FPassing clouds.6 mph37%30.04 "HgN/A
7:30 PM79 °FPassing clouds.3 mph34%30.04 "HgN/A
7:00 PM79 °FSunny.3 mph37%30.07 "Hg10 mi
6:30 PM79 °FPassing clouds.6 mph34%30.07 "HgN/A
6:00 PM79 °FSunny.7 mph34%30.07 "Hg10 mi
5:30 PM79 °FPassing clouds.7 mph37%30.09 "HgN/A
5:00 PM77 °FPassing clouds.7 mph39%30.09 "HgN/A
Weather by CustomWeather, © 2015

See weather overviewHow to use our weather pages